Year,Month,Day,Hour,Minute,Value (Times are PST for temperature in C)
2009,08,20,00,00,17.90
2009,08,20,00,01,17.90
2009,08,20,00,02,17.80
2009,08,20,00,03,17.80
2009,08,20,00,04,17.80
2009,08,20,00,05,17.80
2009,08,20,00,06,17.80
2009,08,20,00,07,17.80
2009,08,20,00,08,17.80
2009,08,20,00,09,17.80
2009,08,20,00,10,17.80
2009,08,20,00,11,17.70
2009,08,20,00,12,17.70
2009,08,20,00,13,17.70
2009,08,20,00,14,17.70
2009,08,20,00,15,17.70
2009,08,20,00,16,17.70
2009,08,20,00,17,17.70
2009,08,20,00,18,17.70
2009,08,20,00,19,17.70
2009,08,20,00,20,17.70
2009,08,20,00,21,17.60
2009,08,20,00,22,17.60
2009,08,20,00,23,17.60
2009,08,20,00,24,17.60
2009,08,20,00,25,17.60
2009,08,20,00,26,17.60
2009,08,20,00,27,17.60
2009,08,20,00,28,17.60
2009,08,20,00,29,17.60
2009,08,20,00,30,17.50
2009,08,20,00,31,17.50
2009,08,20,00,32,17.50
2009,08,20,00,33,17.50
2009,08,20,00,34,17.50
2009,08,20,00,35,17.50
2009,08,20,00,36,17.50
2009,08,20,00,37,17.40
2009,08,20,00,38,17.40
2009,08,20,00,39,17.40
2009,08,20,00,40,17.40
2009,08,20,00,41,17.40
2009,08,20,00,42,17.40
2009,08,20,00,43,17.40
2009,08,20,00,44,17.40
2009,08,20,00,45,17.40
2009,08,20,00,46,17.40
2009,08,20,00,47,17.40
2009,08,20,00,48,17.40
2009,08,20,00,49,17.40
2009,08,20,00,50,17.40
2009,08,20,00,51,17.40
2009,08,20,00,52,17.40
2009,08,20,00,53,17.30
2009,08,20,00,54,17.30
2009,08,20,00,55,17.30
2009,08,20,00,56,17.30
2009,08,20,00,57,17.30
2009,08,20,00,58,17.30
2009,08,20,00,59,17.30
2009,08,20,01,00,17.30
2009,08,20,01,01,17.30
2009,08,20,01,02,17.30
2009,08,20,01,03,17.30
2009,08,20,01,04,17.30
2009,08,20,01,05,17.30
2009,08,20,01,06,17.30
2009,08,20,01,07,17.30
2009,08,20,01,08,17.30
2009,08,20,01,09,17.20
2009,08,20,01,10,17.20
2009,08,20,01,11,17.20
2009,08,20,01,12,17.20
2009,08,20,01,13,17.20
2009,08,20,01,14,17.20
2009,08,20,01,15,17.20
2009,08,20,01,16,17.20
2009,08,20,01,17,17.20
2009,08,20,01,18,17.20
2009,08,20,01,19,17.20
2009,08,20,01,20,17.20
2009,08,20,01,21,17.20
2009,08,20,01,22,17.20
2009,08,20,01,23,17.20
2009,08,20,01,24,17.20
2009,08,20,01,25,17.20
2009,08,20,01,26,17.20
2009,08,20,01,27,17.20
2009,08,20,01,28,17.20
2009,08,20,01,29,17.20
2009,08,20,01,30,17.20
2009,08,20,01,31,17.20
2009,08,20,01,32,17.20
2009,08,20,01,33,17.20
2009,08,20,01,34,17.20
2009,08,20,01,35,17.20
2009,08,20,01,36,17.20
2009,08,20,01,37,17.20
2009,08,20,01,38,17.20
2009,08,20,01,39,17.20
2009,08,20,01,40,17.20
2009,08,20,01,41,17.20
2009,08,20,01,42,17.20
2009,08,20,01,43,17.20
2009,08,20,01,44,17.20
2009,08,20,01,45,17.20
2009,08,20,01,46,17.20
2009,08,20,01,47,17.20
2009,08,20,01,48,17.20
2009,08,20,01,49,17.20
2009,08,20,01,50,17.20
2009,08,20,01,51,17.20
2009,08,20,01,52,17.20
2009,08,20,01,53,17.20
2009,08,20,01,54,17.20
2009,08,20,01,55,17.20
2009,08,20,01,56,17.20
2009,08,20,01,57,17.20
2009,08,20,01,58,17.20
2009,08,20,01,59,17.20
2009,08,20,02,00,17.20
2009,08,20,02,01,17.20
2009,08,20,02,02,17.20
2009,08,20,02,03,17.20
2009,08,20,02,04,17.20
2009,08,20,02,05,17.20
2009,08,20,02,06,17.20
2009,08,20,02,07,17.20
2009,08,20,02,08,17.20
2009,08,20,02,09,17.20
2009,08,20,02,10,17.20
2009,08,20,02,11,17.20
2009,08,20,02,12,17.10
2009,08,20,02,13,17.10
2009,08,20,02,14,17.10
2009,08,20,02,15,17.10
2009,08,20,02,16,17.10
2009,08,20,02,17,17.10
2009,08,20,02,18,17.10
2009,08,20,02,19,17.10
2009,08,20,02,20,17.10
2009,08,20,02,21,17.10
2009,08,20,02,22,17.10
2009,08,20,02,23,17.10
2009,08,20,02,24,17.10
2009,08,20,02,25,17.10
2009,08,20,02,26,17.10
2009,08,20,02,27,17.10
2009,08,20,02,28,17.10
2009,08,20,02,29,17.00
2009,08,20,02,30,17.00
2009,08,20,02,31,17.00
2009,08,20,02,32,17.00
2009,08,20,02,33,17.00
2009,08,20,02,34,16.90
2009,08,20,02,35,16.90
2009,08,20,02,36,16.90
2009,08,20,02,37,16.90
2009,08,20,02,38,16.90
2009,08,20,02,39,16.90
2009,08,20,02,40,16.90
2009,08,20,02,41,16.90
2009,08,20,02,42,16.90
2009,08,20,02,43,16.90
2009,08,20,02,44,16.90
2009,08,20,02,45,16.90
2009,08,20,02,46,16.90
2009,08,20,02,47,16.90
2009,08,20,02,48,16.90
2009,08,20,02,49,16.90
2009,08,20,02,50,16.90
2009,08,20,02,51,16.90
2009,08,20,02,52,16.90
2009,08,20,02,53,16.90
2009,08,20,02,54,16.90
2009,08,20,02,55,16.90
2009,08,20,02,56,16.80
2009,08,20,02,57,16.80
2009,08,20,02,58,16.80
2009,08,20,02,59,16.80
2009,08,20,03,00,16.80
2009,08,20,03,01,16.80
2009,08,20,03,02,16.80
2009,08,20,03,03,16.80
2009,08,20,03,04,16.70
2009,08,20,03,05,16.70
2009,08,20,03,06,16.70
2009,08,20,03,07,16.70
2009,08,20,03,08,16.70
2009,08,20,03,09,16.70
2009,08,20,03,10,16.70
2009,08,20,03,11,16.70
2009,08,20,03,12,16.70
2009,08,20,03,13,16.70
2009,08,20,03,14,16.70
2009,08,20,03,15,16.70
2009,08,20,03,16,16.70
2009,08,20,03,17,16.70
2009,08,20,03,18,16.70
2009,08,20,03,19,16.70
2009,08,20,03,20,16.60
2009,08,20,03,21,16.60
2009,08,20,03,22,16.60
2009,08,20,03,23,16.60
2009,08,20,03,24,16.60
2009,08,20,03,25,16.60
2009,08,20,03,26,16.60
2009,08,20,03,27,16.60
2009,08,20,03,28,16.60
2009,08,20,03,29,16.60
2009,08,20,03,30,16.60
2009,08,20,03,31,16.50
2009,08,20,03,32,16.50
2009,08,20,03,33,16.50
2009,08,20,03,34,16.50
2009,08,20,03,35,16.40
2009,08,20,03,36,16.40
2009,08,20,03,37,16.40
2009,08,20,03,38,16.40
2009,08,20,03,39,16.40
2009,08,20,03,40,16.40
2009,08,20,03,41,16.30
2009,08,20,03,42,16.30
2009,08,20,03,43,16.30
2009,08,20,03,44,16.30
2009,08,20,03,45,16.30
2009,08,20,03,46,16.30
2009,08,20,03,47,16.30
2009,08,20,03,48,16.20
2009,08,20,03,49,16.20
2009,08,20,03,50,16.20
2009,08,20,03,51,16.20
2009,08,20,03,52,16.20
2009,08,20,03,53,16.20
2009,08,20,03,54,16.20
2009,08,20,03,55,16.20
2009,08,20,03,56,16.20
2009,08,20,03,57,16.10
2009,08,20,03,58,16.20
2009,08,20,03,59,16.10
2009,08,20,04,00,16.10
2009,08,20,04,01,16.20
2009,08,20,04,02,16.10
2009,08,20,04,03,16.10
2009,08,20,04,04,16.10
2009,08,20,04,05,16.10
2009,08,20,04,06,16.10
2009,08,20,04,07,16.10
2009,08,20,04,08,16.10
2009,08,20,04,09,16.10
2009,08,20,04,10,16.10
2009,08,20,04,11,16.00
2009,08,20,04,12,16.00
2009,08,20,04,13,16.00
2009,08,20,04,14,16.00
2009,08,20,04,15,16.00
2009,08,20,04,16,16.00
2009,08,20,04,17,15.90
2009,08,20,04,18,15.90
2009,08,20,04,19,15.90
2009,08,20,04,20,15.90
2009,08,20,04,21,15.90
2009,08,20,04,22,15.90
2009,08,20,04,23,15.80
2009,08,20,04,24,15.80
2009,08,20,04,25,15.80
2009,08,20,04,26,15.80
2009,08,20,04,27,15.80
2009,08,20,04,28,15.80
2009,08,20,04,29,15.80
2009,08,20,04,30,15.80
2009,08,20,04,31,15.80
2009,08,20,04,32,15.80
2009,08,20,04,33,15.80
2009,08,20,04,34,15.80
2009,08,20,04,35,15.80
2009,08,20,04,36,15.80
2009,08,20,04,37,15.80
2009,08,20,04,38,15.70
2009,08,20,04,39,15.70
2009,08,20,04,40,15.70
2009,08,20,04,41,15.70
2009,08,20,04,42,15.70
2009,08,20,04,43,15.70
2009,08,20,04,44,15.70
2009,08,20,04,45,15.70
2009,08,20,04,46,15.70
2009,08,20,04,47,15.70
2009,08,20,04,48,15.70
2009,08,20,04,49,15.70
2009,08,20,04,50,15.70
2009,08,20,04,51,15.70
2009,08,20,04,52,15.70
2009,08,20,04,53,15.70
2009,08,20,04,54,15.70
2009,08,20,04,55,15.70
2009,08,20,04,56,15.70
2009,08,20,04,57,15.70
2009,08,20,04,58,15.70
2009,08,20,04,59,15.70
2009,08,20,05,00,15.70
2009,08,20,05,01,15.70
2009,08,20,05,02,15.60
2009,08,20,05,03,15.60
2009,08,20,05,04,15.60
2009,08,20,05,05,15.60
2009,08,20,05,06,15.60
2009,08,20,05,07,15.60
2009,08,20,05,08,15.60
2009,08,20,05,09,15.60
2009,08,20,05,10,15.60
2009,08,20,05,11,15.60
2009,08,20,05,12,15.60
2009,08,20,05,13,15.50
2009,08,20,05,14,15.50
2009,08,20,05,15,15.50
2009,08,20,05,16,15.50
2009,08,20,05,17,15.50
2009,08,20,05,18,15.50
2009,08,20,05,19,15.40
2009,08,20,05,20,15.50
2009,08,20,05,21,15.50
2009,08,20,05,22,15.50
2009,08,20,05,23,15.50
2009,08,20,05,24,15.40
2009,08,20,05,25,15.40
2009,08,20,05,26,15.40
2009,08,20,05,27,15.40
2009,08,20,05,28,15.40
2009,08,20,05,29,15.40
2009,08,20,05,30,15.40
2009,08,20,05,31,15.40
2009,08,20,05,32,15.40
2009,08,20,05,33,15.40
2009,08,20,05,34,15.40
2009,08,20,05,35,15.40
2009,08,20,05,36,15.40
2009,08,20,05,37,15.30
2009,08,20,05,38,15.30
2009,08,20,05,39,15.30
2009,08,20,05,40,15.30
2009,08,20,05,41,15.30
2009,08,20,05,42,15.30
2009,08,20,05,43,15.30
2009,08,20,05,44,15.30
2009,08,20,05,45,15.30
2009,08,20,05,46,15.30
2009,08,20,05,47,15.30
2009,08,20,05,48,15.30
2009,08,20,05,49,15.30
2009,08,20,05,50,15.30
2009,08,20,05,51,15.30
2009,08,20,05,52,15.30
2009,08,20,05,53,15.30
2009,08,20,05,54,15.30
2009,08,20,05,55,15.30
2009,08,20,05,56,15.30
2009,08,20,05,57,15.30
2009,08,20,05,58,15.30
2009,08,20,05,59,15.30
2009,08,20,06,00,15.30
2009,08,20,06,01,15.20
2009,08,20,06,02,15.20
2009,08,20,06,03,15.20
2009,08,20,06,04,15.20
2009,08,20,06,05,15.20
2009,08,20,06,06,15.20
2009,08,20,06,07,15.20
2009,08,20,06,08,15.20
2009,08,20,06,09,15.20
2009,08,20,06,10,15.20
2009,08,20,06,11,15.20
2009,08,20,06,12,15.20
2009,08,20,06,13,15.20
2009,08,20,06,14,15.20
2009,08,20,06,15,15.20
2009,08,20,06,16,15.20
2009,08,20,06,17,15.20
2009,08,20,06,18,15.20
2009,08,20,06,19,15.20
2009,08,20,06,20,15.20
2009,08,20,06,21,15.20
2009,08,20,06,22,15.10
2009,08,20,06,23,15.10
2009,08,20,06,24,15.10
2009,08,20,06,25,15.10
2009,08,20,06,26,15.10
2009,08,20,06,27,15.10
2009,08,20,06,28,15.10
2009,08,20,06,29,15.10
2009,08,20,06,30,15.10
2009,08,20,06,31,15.10
2009,08,20,06,32,15.10
2009,08,20,06,33,15.10
2009,08,20,06,34,15.00
2009,08,20,06,35,15.00
2009,08,20,06,36,15.00
2009,08,20,06,37,15.00
2009,08,20,06,38,15.00
2009,08,20,06,39,15.00
2009,08,20,06,40,15.00
2009,08,20,06,41,15.00
2009,08,20,06,42,15.00
2009,08,20,06,43,15.00
2009,08,20,06,44,15.00
2009,08,20,06,45,15.00
2009,08,20,06,46,15.00
2009,08,20,06,47,15.00
2009,08,20,06,48,15.00
2009,08,20,06,49,15.00
2009,08,20,06,50,15.00
2009,08,20,06,51,15.00
2009,08,20,06,52,15.00
2009,08,20,06,53,15.00
2009,08,20,06,54,15.00
2009,08,20,06,55,15.00
2009,08,20,06,56,15.00
2009,08,20,06,57,15.00
2009,08,20,06,58,15.00
2009,08,20,06,59,15.00
2009,08,20,07,00,15.00
2009,08,20,07,01,15.00
2009,08,20,07,02,15.00
2009,08,20,07,03,15.00
2009,08,20,07,04,15.00
2009,08,20,07,05,15.00
2009,08,20,07,06,15.00
2009,08,20,07,07,15.00
2009,08,20,07,08,15.00
2009,08,20,07,09,15.00
2009,08,20,07,10,15.00
2009,08,20,07,11,15.00
2009,08,20,07,12,15.10
2009,08,20,07,13,15.10
2009,08,20,07,14,15.10
2009,08,20,07,15,15.10
2009,08,20,07,16,15.10
2009,08,20,07,17,15.10
2009,08,20,07,18,15.10
2009,08,20,07,19,15.10
2009,08,20,07,20,15.20
2009,08,20,07,21,15.20
2009,08,20,07,22,15.20
2009,08,20,07,23,15.20
2009,08,20,07,24,15.20
2009,08,20,07,25,15.20
2009,08,20,07,26,15.30
2009,08,20,07,27,15.30
2009,08,20,07,28,15.30
2009,08,20,07,29,15.30
2009,08,20,07,30,15.30
2009,08,20,07,31,15.30
2009,08,20,07,32,15.40
2009,08,20,07,33,15.40
2009,08,20,07,34,15.40
2009,08,20,07,35,15.40
2009,08,20,07,36,15.40
2009,08,20,07,37,15.40
2009,08,20,07,38,15.50
2009,08,20,07,39,15.50
2009,08,20,07,40,15.50
2009,08,20,07,41,15.50
2009,08,20,07,42,15.50
2009,08,20,07,43,15.60
2009,08,20,07,44,15.60
2009,08,20,07,45,15.60
2009,08,20,07,46,15.70
2009,08,20,07,47,15.70
2009,08,20,07,48,15.70
2009,08,20,07,49,15.70
2009,08,20,07,50,15.80
2009,08,20,07,51,15.80
2009,08,20,07,52,15.80
2009,08,20,07,53,15.80
2009,08,20,07,54,15.90
2009,08,20,07,55,15.90
2009,08,20,07,56,15.90
2009,08,20,07,57,15.90
2009,08,20,07,58,16.00
2009,08,20,07,59,16.00
2009,08,20,08,00,16.00
2009,08,20,08,01,16.10
2009,08,20,08,02,16.10
2009,08,20,08,03,16.10
2009,08,20,08,04,16.20
2009,08,20,08,05,16.20
2009,08,20,08,06,16.20
2009,08,20,08,07,16.20
2009,08,20,08,08,16.30
2009,08,20,08,09,16.30
2009,08,20,08,10,16.40
2009,08,20,08,11,16.40
2009,08,20,08,12,16.40
2009,08,20,08,13,16.50
2009,08,20,08,14,16.50
2009,08,20,08,15,16.60
2009,08,20,08,16,16.70
2009,08,20,08,17,16.80
2009,08,20,08,18,16.80
2009,08,20,08,19,16.90
2009,08,20,08,20,17.00
2009,08,20,08,21,17.10
2009,08,20,08,22,17.20
2009,08,20,08,23,17.30
2009,08,20,08,24,17.40
2009,08,20,08,25,17.50
2009,08,20,08,26,17.60
2009,08,20,08,27,17.70
2009,08,20,08,28,17.70
2009,08,20,08,29,17.80
2009,08,20,08,30,17.80
2009,08,20,08,31,17.90
2009,08,20,08,32,18.00
2009,08,20,08,33,18.00
2009,08,20,08,34,18.10
2009,08,20,08,35,18.20
2009,08,20,08,36,18.30
2009,08,20,08,37,18.30
2009,08,20,08,38,18.40
2009,08,20,08,39,18.50
2009,08,20,08,40,18.60
2009,08,20,08,41,18.70
2009,08,20,08,42,18.80
2009,08,20,08,43,18.90
2009,08,20,08,44,18.90
2009,08,20,08,45,19.00
2009,08,20,08,46,19.10
2009,08,20,08,47,19.20
2009,08,20,08,48,19.30
2009,08,20,08,49,19.40
2009,08,20,08,50,19.50
2009,08,20,08,51,19.50
2009,08,20,08,52,19.60
2009,08,20,08,53,19.70
2009,08,20,08,54,19.70
2009,08,20,08,55,19.70
2009,08,20,08,56,19.80
2009,08,20,08,57,19.80
2009,08,20,08,58,19.90
2009,08,20,08,59,19.90
2009,08,20,09,00,20.00
2009,08,20,09,01,20.00
2009,08,20,09,02,20.00
2009,08,20,09,03,20.10
2009,08,20,09,04,20.10
2009,08,20,09,05,20.20
2009,08,20,09,06,20.20
2009,08,20,09,07,20.30
2009,08,20,09,08,20.30
2009,08,20,09,09,20.30
2009,08,20,09,10,20.40
2009,08,20,09,11,20.40
2009,08,20,09,12,20.50
2009,08,20,09,13,20.60
2009,08,20,09,14,20.60
2009,08,20,09,15,20.70
2009,08,20,09,16,20.70
2009,08,20,09,17,20.80
2009,08,20,09,18,20.90
2009,08,20,09,19,20.90
2009,08,20,09,20,21.00
2009,08,20,09,21,21.00
2009,08,20,09,22,21.10
2009,08,20,09,23,21.20
2009,08,20,09,24,21.20
2009,08,20,09,25,21.20
2009,08,20,09,26,21.30
2009,08,20,09,27,21.30
2009,08,20,09,28,21.30
2009,08,20,09,29,21.40
2009,08,20,09,30,21.40
2009,08,20,09,31,21.40
2009,08,20,09,32,21.50
2009,08,20,09,33,21.50
2009,08,20,09,34,21.60
2009,08,20,09,35,21.70
2009,08,20,09,36,21.70
2009,08,20,09,37,21.80
2009,08,20,09,38,21.80
2009,08,20,09,39,21.90
2009,08,20,09,40,22.00
2009,08,20,09,41,22.10
2009,08,20,09,42,22.10
2009,08,20,09,43,22.20
2009,08,20,09,44,22.30
2009,08,20,09,45,22.30
2009,08,20,09,46,22.30
2009,08,20,09,47,22.30
2009,08,20,09,48,22.30
2009,08,20,09,49,22.30
2009,08,20,09,50,22.40
2009,08,20,09,51,22.40
2009,08,20,09,52,22.40
2009,08,20,09,53,22.50
2009,08,20,09,54,22.50
2009,08,20,09,55,22.50
2009,08,20,09,56,22.50
2009,08,20,09,57,22.50
2009,08,20,09,58,22.50
2009,08,20,09,59,22.50
2009,08,20,10,00,22.40
2009,08,20,10,01,22.40
2009,08,20,10,02,22.40
2009,08,20,10,03,22.40
2009,08,20,10,04,22.50
2009,08,20,10,05,22.50
2009,08,20,10,06,22.60
2009,08,20,10,07,22.70
2009,08,20,10,08,22.80
2009,08,20,10,09,22.90
2009,08,20,10,10,22.90
2009,08,20,10,11,22.90
2009,08,20,10,12,23.00
2009,08,20,10,13,23.00
2009,08,20,10,14,23.00
2009,08,20,10,15,23.00
2009,08,20,10,16,23.00
2009,08,20,10,17,23.00
2009,08,20,10,18,23.10
2009,08,20,10,19,23.10
2009,08,20,10,20,23.10
2009,08,20,10,21,23.10
2009,08,20,10,22,23.10
2009,08,20,10,23,23.10
2009,08,20,10,24,23.10
2009,08,20,10,25,23.10
2009,08,20,10,26,23.10
2009,08,20,10,27,23.10
2009,08,20,10,28,23.10
2009,08,20,10,29,23.10
2009,08,20,10,30,23.10
2009,08,20,10,31,23.00
2009,08,20,10,32,23.00
2009,08,20,10,33,23.00
2009,08,20,10,34,23.00
2009,08,20,10,35,23.00
2009,08,20,10,36,23.00
2009,08,20,10,37,23.10
2009,08,20,10,38,23.10
2009,08,20,10,39,23.10
2009,08,20,10,40,23.10
2009,08,20,10,41,23.10
2009,08,20,10,42,23.10
2009,08,20,10,43,23.10
2009,08,20,10,44,23.10
2009,08,20,10,45,23.10
2009,08,20,10,46,23.10
2009,08,20,10,47,23.20
2009,08,20,10,48,23.20
2009,08,20,10,49,23.20
2009,08,20,10,50,23.20
2009,08,20,10,51,23.20
2009,08,20,10,52,23.20
2009,08,20,10,53,23.30
2009,08,20,10,54,23.30
2009,08,20,10,55,23.30
2009,08,20,10,56,23.40
2009,08,20,10,57,23.40
2009,08,20,10,58,23.40
2009,08,20,10,59,23.50
2009,08,20,11,00,23.50
2009,08,20,11,01,23.60
2009,08,20,11,02,23.60
2009,08,20,11,03,23.70
2009,08,20,11,04,23.70
2009,08,20,11,05,23.70
2009,08,20,11,06,23.70
2009,08,20,11,07,23.70
2009,08,20,11,08,23.70
2009,08,20,11,09,23.70
2009,08,20,11,10,23.70
2009,08,20,11,11,23.70
2009,08,20,11,12,23.70
2009,08,20,11,13,23.70
2009,08,20,11,14,23.70
2009,08,20,11,15,23.70
2009,08,20,11,16,23.70
2009,08,20,11,17,23.70
2009,08,20,11,18,23.70
2009,08,20,11,19,23.70
2009,08,20,11,20,23.70
2009,08,20,11,21,23.70
2009,08,20,11,22,23.70
2009,08,20,11,23,23.70
2009,08,20,11,24,23.70
2009,08,20,11,25,23.80
2009,08,20,11,26,23.70
2009,08,20,11,27,23.80
2009,08,20,11,28,23.80
2009,08,20,11,29,23.80
2009,08,20,11,30,23.80
2009,08,20,11,31,23.80
2009,08,20,11,32,23.80
2009,08,20,11,33,23.80
2009,08,20,11,34,23.80
2009,08,20,11,35,23.80
2009,08,20,11,36,23.80
2009,08,20,11,37,23.80
2009,08,20,11,38,23.90
2009,08,20,11,39,23.90
2009,08,20,11,40,23.90
2009,08,20,11,41,24.00
2009,08,20,11,42,24.10
2009,08,20,11,43,24.10
2009,08,20,11,44,24.10
2009,08,20,11,45,24.20
2009,08,20,11,46,24.20
2009,08,20,11,47,24.30
2009,08,20,11,48,24.30
2009,08,20,11,49,24.30
2009,08,20,11,50,24.20
2009,08,20,11,51,24.20
2009,08,20,11,52,24.20
2009,08,20,11,53,24.20
2009,08,20,11,54,24.20
2009,08,20,11,55,24.20
2009,08,20,11,56,24.30
2009,08,20,11,57,24.30
2009,08,20,11,58,24.30
2009,08,20,11,59,24.40
2009,08,20,12,00,24.50
2009,08,20,12,01,24.50
2009,08,20,12,02,24.60
2009,08,20,12,03,24.70
2009,08,20,12,04,24.70
2009,08,20,12,05,24.80
2009,08,20,12,06,24.80
2009,08,20,12,07,24.90
2009,08,20,12,08,24.90
2009,08,20,12,09,25.00
2009,08,20,12,10,25.00
2009,08,20,12,11,25.00
2009,08,20,12,12,25.00
2009,08,20,12,13,25.00
2009,08,20,12,14,25.10
2009,08,20,12,15,25.20
2009,08,20,12,16,25.30
2009,08,20,12,17,25.40
2009,08,20,12,18,25.50
2009,08,20,12,19,25.60
2009,08,20,12,20,25.60
2009,08,20,12,21,25.60
2009,08,20,12,22,25.60
2009,08,20,12,23,25.60
2009,08,20,12,24,25.60
2009,08,20,12,25,25.70
2009,08,20,12,26,25.80
2009,08,20,12,27,25.90
2009,08,20,12,28,25.90
2009,08,20,12,29,25.90
2009,08,20,12,30,25.90
2009,08,20,12,31,25.90
2009,08,20,12,32,26.00
2009,08,20,12,33,26.00
2009,08,20,12,34,26.10
2009,08,20,12,35,26.10
2009,08,20,12,36,26.20
2009,08,20,12,37,26.20
2009,08,20,12,38,26.30
2009,08,20,12,39,26.40
2009,08,20,12,40,26.50
2009,08,20,12,41,26.60
2009,08,20,12,42,26.70
2009,08,20,12,43,26.80
2009,08,20,12,44,26.90
2009,08,20,12,45,27.00
2009,08,20,12,46,27.00
2009,08,20,12,47,27.00
2009,08,20,12,48,27.00
2009,08,20,12,49,27.00
2009,08,20,12,50,27.00
2009,08,20,12,51,27.00
2009,08,20,12,52,26.90
2009,08,20,12,53,26.90
2009,08,20,12,54,26.80
2009,08,20,12,55,26.70
2009,08,20,12,56,26.70
2009,08,20,12,57,26.70
2009,08,20,12,58,26.80
2009,08,20,12,59,26.90
2009,08,20,13,00,26.90
2009,08,20,13,01,27.00
2009,08,20,13,02,27.00
2009,08,20,13,03,27.10
2009,08,20,13,04,27.20
2009,08,20,13,05,27.30
2009,08,20,13,06,27.30
2009,08,20,13,07,27.30
2009,08,20,13,08,27.30
2009,08,20,13,09,27.20
2009,08,20,13,10,27.20
2009,08,20,13,11,27.10
2009,08,20,13,12,27.10
2009,08,20,13,13,27.10
2009,08,20,13,14,27.10
2009,08,20,13,15,27.00
2009,08,20,13,16,27.00
2009,08,20,13,17,27.00
2009,08,20,13,18,26.90
2009,08,20,13,19,26.90
2009,08,20,13,20,27.00
2009,08,20,13,21,27.00
2009,08,20,13,22,27.10
2009,08,20,13,23,27.20
2009,08,20,13,24,27.30
2009,08,20,13,25,27.40
2009,08,20,13,26,27.40
2009,08,20,13,27,27.50
2009,08,20,13,28,27.60
2009,08,20,13,29,27.60
2009,08,20,13,30,27.70
2009,08,20,13,31,27.70
2009,08,20,13,32,27.70
2009,08,20,13,33,27.70
2009,08,20,13,34,27.70
2009,08,20,13,35,27.80
2009,08,20,13,36,27.70
2009,08,20,13,37,27.70
2009,08,20,13,38,27.60
2009,08,20,13,39,27.50
2009,08,20,13,40,27.40
2009,08,20,13,41,27.40
2009,08,20,13,42,27.40
2009,08,20,13,43,27.40
2009,08,20,13,44,27.40
2009,08,20,13,45,27.40
2009,08,20,13,46,27.40
2009,08,20,13,47,27.40
2009,08,20,13,48,27.40
2009,08,20,13,49,27.40
2009,08,20,13,50,27.40
2009,08,20,13,51,27.40
2009,08,20,13,52,27.30
2009,08,20,13,53,27.30
2009,08,20,13,54,27.40
2009,08,20,13,55,27.50
2009,08,20,13,56,27.60
2009,08,20,13,57,27.70
2009,08,20,13,58,27.70
2009,08,20,13,59,27.60
2009,08,20,14,00,27.50
2009,08,20,14,01,27.50
2009,08,20,14,02,27.40
2009,08,20,14,03,27.40
2009,08,20,14,04,27.50
2009,08,20,14,05,27.50
2009,08,20,14,06,27.50
2009,08,20,14,07,27.50
2009,08,20,14,08,27.60
2009,08,20,14,09,27.70
2009,08,20,14,10,27.80
2009,08,20,14,11,27.80
2009,08,20,14,12,27.80
2009,08,20,14,13,27.80
2009,08,20,14,14,27.80
2009,08,20,14,15,27.90
2009,08,20,14,16,28.00
2009,08,20,14,17,28.00
2009,08,20,14,18,28.10
2009,08,20,14,19,28.20
2009,08,20,14,20,28.10
2009,08,20,14,21,28.10
2009,08,20,14,22,28.00
2009,08,20,14,23,28.00
2009,08,20,14,24,28.00
2009,08,20,14,25,28.00
2009,08,20,14,26,28.00
2009,08,20,14,27,27.90
2009,08,20,14,28,27.90
2009,08,20,14,29,27.80
2009,08,20,14,30,27.80
2009,08,20,14,31,27.80
2009,08,20,14,32,27.80
2009,08,20,14,33,27.90
2009,08,20,14,34,27.90
2009,08,20,14,35,28.00
2009,08,20,14,36,28.10
2009,08,20,14,37,28.20
2009,08,20,14,38,28.20
2009,08,20,14,39,28.30
2009,08,20,14,40,28.30
2009,08,20,14,41,28.30
2009,08,20,14,42,28.30
2009,08,20,14,43,28.30
2009,08,20,14,44,28.30
2009,08,20,14,45,28.20
2009,08,20,14,46,28.10
2009,08,20,14,47,28.00
2009,08,20,14,48,27.90
2009,08,20,14,49,27.90
2009,08,20,14,50,27.80
2009,08,20,14,51,27.70
2009,08,20,14,52,27.60
2009,08,20,14,53,27.60
2009,08,20,14,54,27.60
2009,08,20,14,55,27.60
2009,08,20,14,56,27.60
2009,08,20,14,57,27.60
2009,08,20,14,58,27.60
2009,08,20,14,59,27.60
2009,08,20,15,00,27.60
2009,08,20,15,01,27.50
2009,08,20,15,02,27.40
2009,08,20,15,03,27.30
2009,08,20,15,04,27.30
2009,08,20,15,05,27.20
2009,08,20,15,06,27.20
2009,08,20,15,07,27.20
2009,08,20,15,08,27.10
2009,08,20,15,09,27.20
2009,08,20,15,10,27.20
2009,08,20,15,11,27.20
2009,08,20,15,12,27.20
2009,08,20,15,13,27.20
2009,08,20,15,14,27.20
2009,08,20,15,15,27.20
2009,08,20,15,16,27.20
2009,08,20,15,17,27.30
2009,08,20,15,18,27.30
2009,08,20,15,19,27.30
2009,08,20,15,20,27.40
2009,08,20,15,21,27.40
2009,08,20,15,22,27.50
2009,08,20,15,23,27.50
2009,08,20,15,24,27.60
2009,08,20,15,25,27.60
2009,08,20,15,26,27.60
2009,08,20,15,27,27.60
2009,08,20,15,28,27.60
2009,08,20,15,29,27.60
2009,08,20,15,30,27.60
2009,08,20,15,31,27.60
2009,08,20,15,32,27.60
2009,08,20,15,33,27.50
2009,08,20,15,34,27.50
2009,08,20,15,35,27.50
2009,08,20,15,36,27.40
2009,08,20,15,37,27.40
2009,08,20,15,38,27.40
2009,08,20,15,39,27.40
2009,08,20,15,40,27.30
2009,08,20,15,41,27.30
2009,08,20,15,42,27.20
2009,08,20,15,43,27.20
2009,08,20,15,44,27.20
2009,08,20,15,45,27.20
2009,08,20,15,46,27.20
2009,08,20,15,47,27.20
2009,08,20,15,48,27.10
2009,08,20,15,49,27.10
2009,08,20,15,50,27.10
2009,08,20,15,51,27.10
2009,08,20,15,52,27.10
2009,08,20,15,53,27.10
2009,08,20,15,54,27.10
2009,08,20,15,55,27.10
2009,08,20,15,56,27.10
2009,08,20,15,57,27.00
2009,08,20,15,58,27.00
2009,08,20,15,59,27.00
2009,08,20,16,00,26.90
2009,08,20,16,01,26.90
2009,08,20,16,02,26.80
2009,08,20,16,03,26.80
2009,08,20,16,04,26.80
2009,08,20,16,05,26.80
2009,08,20,16,06,26.80
2009,08,20,16,07,26.80
2009,08,20,16,08,26.80
2009,08,20,16,09,26.80
2009,08,20,16,10,26.90
2009,08,20,16,11,26.90
2009,08,20,16,12,27.00
2009,08,20,16,13,27.00
2009,08,20,16,14,27.00
2009,08,20,16,15,27.00
2009,08,20,16,16,26.90
2009,08,20,16,17,26.90
2009,08,20,16,18,26.90
2009,08,20,16,19,26.90
2009,08,20,16,20,26.90
2009,08,20,16,21,26.90
2009,08,20,16,22,26.90
2009,08,20,16,23,26.90
2009,08,20,16,24,26.80
2009,08,20,16,25,26.80
2009,08,20,16,26,26.80
2009,08,20,16,27,26.80
2009,08,20,16,28,26.80
2009,08,20,16,29,26.70
2009,08,20,16,30,26.70
2009,08,20,16,31,26.70
2009,08,20,16,32,26.60
2009,08,20,16,33,26.60
2009,08,20,16,34,26.60
2009,08,20,16,35,26.50
2009,08,20,16,36,26.50
2009,08,20,16,37,26.50
2009,08,20,16,38,26.50
2009,08,20,16,39,26.40
2009,08,20,16,40,26.40
2009,08,20,16,41,26.50
2009,08,20,16,42,26.50
2009,08,20,16,43,26.50
2009,08,20,16,44,26.50
2009,08,20,16,45,26.50
2009,08,20,16,46,26.50
2009,08,20,16,47,26.50
2009,08,20,16,48,26.50
2009,08,20,16,49,26.50
2009,08,20,16,50,26.50
2009,08,20,16,51,26.50
2009,08,20,16,52,26.40
2009,08,20,16,53,26.40
2009,08,20,16,54,26.40
2009,08,20,16,55,26.40
2009,08,20,16,56,26.30
2009,08,20,16,57,26.30
2009,08,20,16,58,26.20
2009,08,20,16,59,26.20
2009,08,20,17,00,26.20
2009,08,20,17,01,26.10
2009,08,20,17,02,26.10
2009,08,20,17,03,26.10
2009,08,20,17,04,26.00
2009,08,20,17,05,26.00
2009,08,20,17,06,26.00
2009,08,20,17,07,26.00
2009,08,20,17,08,26.00
2009,08,20,17,09,25.90
2009,08,20,17,10,25.90
2009,08,20,17,11,25.90
2009,08,20,17,12,25.90
2009,08,20,17,13,25.90
2009,08,20,17,14,25.90
2009,08,20,17,15,25.90
2009,08,20,17,16,25.80
2009,08,20,17,17,25.80
2009,08,20,17,18,25.80
2009,08,20,17,19,25.80